owner,sensor,date,latitude,longitude,air_pressure(mBar),qcFlag 
COMPS,ioos:station:USF.COMPS:CAM:1,2008-09-01T00:00:00Z,27.7650,-82.6490,1008.85,1111122 
COMPS,ioos:station:USF.COMPS:CAM:1,2008-09-01T01:00:00Z,27.7650,-82.6490,1009.32,1111122 
COMPS,ioos:station:USF.COMPS:CAM:1,2008-09-01T02:00:00Z,27.7650,-82.6490,1009.82,1111122 
COMPS,ioos:station:USF.COMPS:CAM:1,2008-09-01T03:00:00Z,27.7650,-82.6490,1010.32,1111122 
COMPS,ioos:station:USF.COMPS:CAM:1,2008-09-01T04:00:00Z,27.7650,-82.6490,1010.53,1111122 
COMPS,ioos:station:USF.COMPS:CAM:1,2008-09-01T05:00:00Z,27.7650,-82.6490,1010.8,1111122 
COMPS,ioos:station:USF.COMPS:CAM:1,2008-09-01T06:00:00Z,27.7650,-82.6490,1010.32,1111122 
COMPS,ioos:station:USF.COMPS:CAM:1,2008-09-01T07:00:00Z,27.7650,-82.6490,1009.78,1111122 
COMPS,ioos:station:USF.COMPS:CAM:1,2008-09-01T08:00:00Z,27.7650,-82.6490,1009.64,1111122 
COMPS,ioos:station:USF.COMPS:CAM:1,2008-09-01T09:00:00Z,27.7650,-82.6490,1009.64,1111122 
COMPS,ioos:station:USF.COMPS:CAM:1,2008-09-01T10:00:00Z,27.7650,-82.6490,1009.93,1111122 
COMPS,ioos:station:USF.COMPS:CAM:1,2008-09-01T11:00:00Z,27.7650,-82.6490,1010.86,1111122 
COMPS,ioos:station:USF.COMPS:CAM:1,2008-09-01T12:00:00Z,27.7650,-82.6490,1011.73,1111122 
COMPS,ioos:station:USF.COMPS:CAM:1,2008-09-01T13:00:00Z,27.7650,-82.6490,1012.46,1111122 
COMPS,ioos:station:USF.COMPS:CAM:1,2008-09-01T14:00:00Z,27.7650,-82.6490,1012.76,1111122 
COMPS,ioos:station:USF.COMPS:CAM:1,2008-09-01T15:00:00Z,27.7650,-82.6490,1013.04,1111122 
COMPS,ioos:station:USF.COMPS:CAM:1,2008-09-01T16:00:00Z,27.7650,-82.6490,1013.05,1111122 
COMPS,ioos:station:USF.COMPS:CAM:1,2008-09-01T17:00:00Z,27.7650,-82.6490,1013.05,1111122 
COMPS,ioos:station:USF.COMPS:CAM:1,2008-09-01T18:00:00Z,27.7650,-82.6490,1012.66,1111122 
COMPS,ioos:station:USF.COMPS:CAM:1,2008-09-01T19:00:00Z,27.7650,-82.6490,1012.04,1111122 
COMPS,ioos:station:USF.COMPS:CAM:1,2008-09-01T20:00:00Z,27.7650,-82.6490,1011.16,1111122 
COMPS,ioos:station:USF.COMPS:CAM:1,2008-09-01T21:00:00Z,27.7650,-82.6490,1010.84,1111122 
COMPS,ioos:station:USF.COMPS:CAM:1,2008-09-01T22:00:00Z,27.7650,-82.6490,1010.72,1111122 
COMPS,ioos:station:USF.COMPS:CAM:1,2008-09-01T23:00:00Z,27.7650,-82.6490,1010.84,1111122 
COMPS,ioos:station:USF.COMPS:CAM:1,2008-09-02T00:00:00Z,27.7650,-82.6490,1011.14,1111122 
COMPS,ioos:station:USF.COMPS:CAM:1,2008-09-02T01:00:00Z,27.7650,-82.6490,1011.64,1111122 
COMPS,ioos:station:USF.COMPS:CAM:1,2008-09-02T02:00:00Z,27.7650,-82.6490,1012.36,1111122 
COMPS,ioos:station:USF.COMPS:CAM:1,2008-09-02T03:00:00Z,27.7650,-82.6490,1012.68,1111122 
COMPS,ioos:station:USF.COMPS:CAM:1,2008-09-02T04:00:00Z,27.7650,-82.6490,1012.53,1111122 
COMPS,ioos:station:USF.COMPS:CAM:1,2008-09-02T05:00:00Z,27.7650,-82.6490,1012.26,1111122 
COMPS,ioos:station:USF.COMPS:CAM:1,2008-09-02T06:00:00Z,27.7650,-82.6490,1011.92,1111122 
COMPS,ioos:station:USF.COMPS:CAM:1,2008-09-02T07:00:00Z,27.7650,-82.6490,1011.61,1111122 
COMPS,ioos:station:USF.COMPS:CAM:1,2008-09-02T08:00:00Z,27.7650,-82.6490,1011.0,1111122 
COMPS,ioos:station:USF.COMPS:CAM:1,2008-09-02T09:00:00Z,27.7650,-82.6490,1011.0,1111122 
COMPS,ioos:station:USF.COMPS:CAM:1,2008-09-02T10:00:00Z,27.7650,-82.6490,1011.21,1111122 
COMPS,ioos:station:USF.COMPS:CAM:1,2008-09-02T11:00:00Z,27.7650,-82.6490,1011.73,1111122 
COMPS,ioos:station:USF.COMPS:CAM:1,2008-09-02T12:00:00Z,27.7650,-82.6490,1012.05,1111122 
COMPS,ioos:station:USF.COMPS:CAM:1,2008-09-02T13:00:00Z,27.7650,-82.6490,1012.16,1111122 
COMPS,ioos:station:USF.COMPS:CAM:1,2008-09-02T14:00:00Z,27.7650,-82.6490,1012.64,1111122 
COMPS,ioos:station:USF.COMPS:CAM:1,2008-09-02T15:00:00Z,27.7650,-82.6490,1012.98,1111122 
COMPS,ioos:station:USF.COMPS:CAM:1,2008-09-02T16:00:00Z,27.7650,-82.6490,1012.64,1111122 
COMPS,ioos:station:USF.COMPS:CAM:1,2008-09-02T17:00:00Z,27.7650,-82.6490,1012.12,1111122 
COMPS,ioos:station:USF.COMPS:CAM:1,2008-09-02T18:00:00Z,27.7650,-82.6490,1011.66,1111122 
COMPS,ioos:station:USF.COMPS:CAM:1,2008-09-02T19:00:00Z,27.7650,-82.6490,1010.9,1111122 
COMPS,ioos:station:USF.COMPS:CAM:1,2008-09-02T20:00:00Z,27.7650,-82.6490,1009.88,1111122 
COMPS,ioos:station:USF.COMPS:CAM:1,2008-09-02T21:00:00Z,27.7650,-82.6490,1009.92,1111122 
COMPS,ioos:station:USF.COMPS:CAM:1,2008-09-02T22:00:00Z,27.7650,-82.6490,1009.8,1111122 
COMPS,ioos:station:USF.COMPS:CAM:1,2008-09-02T23:00:00Z,27.7650,-82.6490,1009.77,1111122 
COMPS,ioos:station:USF.COMPS:CAM:1,2008-09-03T00:00:00Z,27.7650,-82.6490,1010.4,1111122 
COMPS,ioos:station:USF.COMPS:CAM:1,2008-09-03T01:00:00Z,27.7650,-82.6490,1011.0,1111122 
COMPS,ioos:station:USF.COMPS:CAM:1,2008-09-03T02:00:00Z,27.7650,-82.6490,1011.57,1111122 
COMPS,ioos:station:USF.COMPS:CAM:1,2008-09-03T03:00:00Z,27.7650,-82.6490,1011.96,1111122 
COMPS,ioos:station:USF.COMPS:CAM:1,2008-09-03T04:00:00Z,27.7650,-82.6490,1012.1,1111122 
COMPS,ioos:station:USF.COMPS:CAM:1,2008-09-03T05:00:00Z,27.7650,-82.6490,1011.74,1111122 
COMPS,ioos:station:USF.COMPS:CAM:1,2008-09-03T06:00:00Z,27.7650,-82.6490,1011.0,1111122 
COMPS,ioos:station:USF.COMPS:CAM:1,2008-09-03T07:00:00Z,27.7650,-82.6490,1010.73,1111122 
COMPS,ioos:station:USF.COMPS:CAM:1,2008-09-03T08:00:00Z,27.7650,-82.6490,1010.44,1111122 
COMPS,ioos:station:USF.COMPS:CAM:1,2008-09-03T09:00:00Z,27.7650,-82.6490,1010.25,1111122 
COMPS,ioos:station:USF.COMPS:CAM:1,2008-09-03T10:00:00Z,27.7650,-82.6490,1010.78,1111122 
COMPS,ioos:station:USF.COMPS:CAM:1,2008-09-03T11:00:00Z,27.7650,-82.6490,1011.24,1111122 
COMPS,ioos:station:USF.COMPS:CAM:1,2008-09-03T12:00:00Z,27.7650,-82.6490,1011.42,1111122 
COMPS,ioos:station:USF.COMPS:CAM:1,2008-09-03T13:00:00Z,27.7650,-82.6490,1011.68,1111122 
COMPS,ioos:station:USF.COMPS:CAM:1,2008-09-03T14:00:00Z,27.7650,-82.6490,1011.66,1111122 
COMPS,ioos:station:USF.COMPS:CAM:1,2008-09-03T15:00:00Z,27.7650,-82.6490,1012.2,1111122 
COMPS,ioos:station:USF.COMPS:CAM:1,2008-09-03T16:00:00Z,27.7650,-82.6490,1012.24,1111122 
COMPS,ioos:station:USF.COMPS:CAM:1,2008-09-03T17:00:00Z,27.7650,-82.6490,1011.5,1111122 
COMPS,ioos:station:USF.COMPS:CAM:1,2008-09-03T18:00:00Z,27.7650,-82.6490,1010.74,1111122 
COMPS,ioos:station:USF.COMPS:CAM:1,2008-09-03T19:00:00Z,27.7650,-82.6490,1010.2,1111122 
COMPS,ioos:station:USF.COMPS:CAM:1,2008-09-03T20:00:00Z,27.7650,-82.6490,1009.56,1111122 
COMPS,ioos:station:USF.COMPS:CAM:1,2008-09-03T21:00:00Z,27.7650,-82.6490,1009.01,1111122 
COMPS,ioos:station:USF.COMPS:CAM:1,2008-09-03T22:00:00Z,27.7650,-82.6490,1008.96,1111122 
COMPS,ioos:station:USF.COMPS:CAM:1,2008-09-03T23:00:00Z,27.7650,-82.6490,1008.89,1111122 
COMPS,ioos:station:USF.COMPS:CAM:1,2008-09-04T00:00:00Z,27.7650,-82.6490,1009.22,1111122 
COMPS,ioos:station:USF.COMPS:CAM:1,2008-09-04T01:00:00Z,27.7650,-82.6490,1009.65,1111122 
COMPS,ioos:station:USF.COMPS:CAM:1,2008-09-04T02:00:00Z,27.7650,-82.6490,1010.16,1111122 
COMPS,ioos:station:USF.COMPS:CAM:1,2008-09-04T03:00:00Z,27.7650,-82.6490,1010.58,1111122 
COMPS,ioos:station:USF.COMPS:CAM:1,2008-09-04T04:00:00Z,27.7650,-82.6490,1010.46,1111122 
COMPS,ioos:station:USF.COMPS:CAM:1,2008-09-04T05:00:00Z,27.7650,-82.6490,1010.41,1111122 
COMPS,ioos:station:USF.COMPS:CAM:1,2008-09-04T06:00:00Z,27.7650,-82.6490,1010.41,1111122 
COMPS,ioos:station:USF.COMPS:CAM:1,2008-09-04T07:00:00Z,27.7650,-82.6490,1009.89,1111122 
COMPS,ioos:station:USF.COMPS:CAM:1,2008-09-04T08:00:00Z,27.7650,-82.6490,1009.81,1111122 
COMPS,ioos:station:USF.COMPS:CAM:1,2008-09-04T09:00:00Z,27.7650,-82.6490,1009.98,1111122 
COMPS,ioos:station:USF.COMPS:CAM:1,2008-09-04T10:00:00Z,27.7650,-82.6490,1010.2,1111122 
COMPS,ioos:station:USF.COMPS:CAM:1,2008-09-04T11:00:00Z,27.7650,-82.6490,1010.45,1111122 
COMPS,ioos:station:USF.COMPS:CAM:1,2008-09-04T12:00:00Z,27.7650,-82.6490,1010.96,1111122 
COMPS,ioos:station:USF.COMPS:CAM:1,2008-09-04T13:00:00Z,27.7650,-82.6490,1011.18,1111122 
COMPS,ioos:station:USF.COMPS:CAM:1,2008-09-04T14:00:00Z,27.7650,-82.6490,1011.53,1111122 
COMPS,ioos:station:USF.COMPS:CAM:1,2008-09-04T15:00:00Z,27.7650,-82.6490,1011.61,1111122 
COMPS,ioos:station:USF.COMPS:CAM:1,2008-09-04T16:00:00Z,27.7650,-82.6490,1010.94,1111122 
COMPS,ioos:station:USF.COMPS:CAM:1,2008-09-04T17:00:00Z,27.7650,-82.6490,1010.21,1111122 
COMPS,ioos:station:USF.COMPS:CAM:1,2008-09-04T18:00:00Z,27.7650,-82.6490,1009.65,1111122 
COMPS,ioos:station:USF.COMPS:CAM:1,2008-09-04T19:00:00Z,27.7650,-82.6490,1008.69,1111122 
COMPS,ioos:station:USF.COMPS:CAM:1,2008-09-04T20:00:00Z,27.7650,-82.6490,1007.76,1111122 
COMPS,ioos:station:USF.COMPS:CAM:1,2008-09-04T21:00:00Z,27.7650,-82.6490,1007.29,1111122 
COMPS,ioos:station:USF.COMPS:CAM:1,2008-09-04T22:00:00Z,27.7650,-82.6490,1007.4,1111122 
COMPS,ioos:station:USF.COMPS:CAM:1,2008-09-04T23:00:00Z,27.7650,-82.6490,1006.8,1111122 
COMPS,ioos:station:USF.COMPS:CAM:1,2008-09-05T00:00:00Z,27.7650,-82.6490,1007.09,1111122 
COMPS,ioos:station:USF.COMPS:CAM:1,2008-09-05T01:00:00Z,27.7650,-82.6490,1007.28,1111122 
COMPS,ioos:station:USF.COMPS:CAM:1,2008-09-05T02:00:00Z,27.7650,-82.6490,1007.81,1111122 
COMPS,ioos:station:USF.COMPS:CAM:1,2008-09-05T03:00:00Z,27.7650,-82.6490,1008.33,1111122 
COMPS,ioos:station:USF.COMPS:CAM:1,2008-09-05T04:00:00Z,27.7650,-82.6490,1008.16,1111122 
COMPS,ioos:station:USF.COMPS:CAM:1,2008-09-05T05:00:00Z,27.7650,-82.6490,1007.38,1111122 
COMPS,ioos:station:USF.COMPS:CAM:1,2008-09-05T06:00:00Z,27.7650,-82.6490,1006.44,1111122 
COMPS,ioos:station:USF.COMPS:CAM:1,2008-09-05T07:00:00Z,27.7650,-82.6490,1005.77,1111122 
COMPS,ioos:station:USF.COMPS:CAM:1,2008-09-05T08:00:00Z,27.7650,-82.6490,1005.64,1111122 
COMPS,ioos:station:USF.COMPS:CAM:1,2008-09-05T09:00:00Z,27.7650,-82.6490,1005.08,1111122 
COMPS,ioos:station:USF.COMPS:CAM:1,2008-09-05T10:00:00Z,27.7650,-82.6490,1005.08,1111122 
COMPS,ioos:station:USF.COMPS:CAM:1,2008-09-05T11:00:00Z,27.7650,-82.6490,1005.02,1111122 
COMPS,ioos:station:USF.COMPS:CAM:1,2008-09-05T12:00:00Z,27.7650,-82.6490,1006.09,1111122 
COMPS,ioos:station:USF.COMPS:CAM:1,2008-09-05T13:00:00Z,27.7650,-82.6490,1006.17,1111122 
COMPS,ioos:station:USF.COMPS:CAM:1,2008-09-05T14:00:00Z,27.7650,-82.6490,1006.5,1111122 
COMPS,ioos:station:USF.COMPS:CAM:1,2008-09-05T15:00:00Z,27.7650,-82.6490,1006.69,1111122 
COMPS,ioos:station:USF.COMPS:CAM:1,2008-09-05T16:00:00Z,27.7650,-82.6490,1006.92,1111122 
COMPS,ioos:station:USF.COMPS:CAM:1,2008-09-05T17:00:00Z,27.7650,-82.6490,1006.78,1111122 
COMPS,ioos:station:USF.COMPS:CAM:1,2008-09-05T18:00:00Z,27.7650,-82.6490,1007.02,1111122 
COMPS,ioos:station:USF.COMPS:CAM:1,2008-09-05T19:00:00Z,27.7650,-82.6490,1006.69,1111122 
COMPS,ioos:station:USF.COMPS:CAM:1,2008-09-05T20:00:00Z,27.7650,-82.6490,1006.28,1111122 
COMPS,ioos:station:USF.COMPS:CAM:1,2008-09-05T21:00:00Z,27.7650,-82.6490,1006.53,1111122 
COMPS,ioos:station:USF.COMPS:CAM:1,2008-09-05T22:00:00Z,27.7650,-82.6490,1007.09,1111122 
COMPS,ioos:station:USF.COMPS:CAM:1,2008-09-05T23:00:00Z,27.7650,-82.6490,1007.72,1111122 
COMPS,ioos:station:USF.COMPS:CAM:1,2008-09-06T00:00:00Z,27.7650,-82.6490,1008.33,1111122 
COMPS,ioos:station:USF.COMPS:CAM:1,2008-09-06T01:00:00Z,27.7650,-82.6490,1009.16,1111122 
COMPS,ioos:station:USF.COMPS:CAM:1,2008-09-06T02:00:00Z,27.7650,-82.6490,1010.12,1111122 
COMPS,ioos:station:USF.COMPS:CAM:1,2008-09-06T03:00:00Z,27.7650,-82.6490,1010.5,1111122 
COMPS,ioos:station:USF.COMPS:CAM:1,2008-09-06T04:00:00Z,27.7650,-82.6490,1010.46,1111122 
COMPS,ioos:station:USF.COMPS:CAM:1,2008-09-06T05:00:00Z,27.7650,-82.6490,1010.61,1111122 
COMPS,ioos:station:USF.COMPS:CAM:1,2008-09-06T06:00:00Z,27.7650,-82.6490,1010.69,1111122 
COMPS,ioos:station:USF.COMPS:CAM:1,2008-09-06T07:00:00Z,27.7650,-82.6490,1010.81,1111122 
COMPS,ioos:station:USF.COMPS:CAM:1,2008-09-06T08:00:00Z,27.7650,-82.6490,1010.93,1111122 
COMPS,ioos:station:USF.COMPS:CAM:1,2008-09-06T09:00:00Z,27.7650,-82.6490,1011.01,1111122 
COMPS,ioos:station:USF.COMPS:CAM:1,2008-09-06T10:00:00Z,27.7650,-82.6490,1011.42,1111122 
COMPS,ioos:station:USF.COMPS:CAM:1,2008-09-06T11:00:00Z,27.7650,-82.6490,1011.98,1111122 
COMPS,ioos:station:USF.COMPS:CAM:1,2008-09-06T12:00:00Z,27.7650,-82.6490,1012.77,1111122 
COMPS,ioos:station:USF.COMPS:CAM:1,2008-09-06T13:00:00Z,27.7650,-82.6490,1013.37,1111122 
COMPS,ioos:station:USF.COMPS:CAM:1,2008-09-06T14:00:00Z,27.7650,-82.6490,1013.81,1111122 
COMPS,ioos:station:USF.COMPS:CAM:1,2008-09-06T15:00:00Z,27.7650,-82.6490,1014.21,1111122 
COMPS,ioos:station:USF.COMPS:CAM:1,2008-09-06T16:00:00Z,27.7650,-82.6490,1014.28,1111122 
COMPS,ioos:station:USF.COMPS:CAM:1,2008-09-06T17:00:00Z,27.7650,-82.6490,1014.0,1111122 
COMPS,ioos:station:USF.COMPS:CAM:1,2008-09-06T18:00:00Z,27.7650,-82.6490,1013.93,1111122 
COMPS,ioos:station:USF.COMPS:CAM:1,2008-09-06T19:00:00Z,27.7650,-82.6490,1013.58,1111122 
COMPS,ioos:station:USF.COMPS:CAM:1,2008-09-06T20:00:00Z,27.7650,-82.6490,1013.12,1111122 
COMPS,ioos:station:USF.COMPS:CAM:1,2008-09-06T21:00:00Z,27.7650,-82.6490,1013.05,1111122 
COMPS,ioos:station:USF.COMPS:CAM:1,2008-09-06T22:00:00Z,27.7650,-82.6490,1013.26,1111122 
COMPS,ioos:station:USF.COMPS:CAM:1,2008-09-06T23:00:00Z,27.7650,-82.6490,1013.72,1111122 
COMPS,ioos:station:USF.COMPS:CAM:1,2008-09-07T00:00:00Z,27.7650,-82.6490,1014.08,1111122 
COMPS,ioos:station:USF.COMPS:CAM:1,2008-09-07T01:00:00Z,27.7650,-82.6490,1014.69,1111122 
COMPS,ioos:station:USF.COMPS:CAM:1,2008-09-07T02:00:00Z,27.7650,-82.6490,1015.18,1111122 
COMPS,ioos:station:USF.COMPS:CAM:1,2008-09-07T03:00:00Z,27.7650,-82.6490,1015.5,1111122 
COMPS,ioos:station:USF.COMPS:CAM:1,2008-09-07T04:00:00Z,27.7650,-82.6490,1015.78,1111122 
COMPS,ioos:station:USF.COMPS:CAM:1,2008-09-07T05:00:00Z,27.7650,-82.6490,1015.52,1111122 
COMPS,ioos:station:USF.COMPS:CAM:1,2008-09-07T06:00:00Z,27.7650,-82.6490,1015.32,1111122 
COMPS,ioos:station:USF.COMPS:CAM:1,2008-09-07T07:00:00Z,27.7650,-82.6490,1015.01,1111122 
COMPS,ioos:station:USF.COMPS:CAM:1,2008-09-07T08:00:00Z,27.7650,-82.6490,1014.61,1111122 
COMPS,ioos:station:USF.COMPS:CAM:1,2008-09-07T09:00:00Z,27.7650,-82.6490,1014.68,1111122 
COMPS,ioos:station:USF.COMPS:CAM:1,2008-09-07T10:00:00Z,27.7650,-82.6490,1014.92,1111122 
COMPS,ioos:station:USF.COMPS:CAM:1,2008-09-07T11:00:00Z,27.7650,-82.6490,1015.6,1111122 
COMPS,ioos:station:USF.COMPS:CAM:1,2008-09-07T12:00:00Z,27.7650,-82.6490,1016.02,1111122 
COMPS,ioos:station:USF.COMPS:CAM:1,2008-09-07T13:00:00Z,27.7650,-82.6490,1016.32,1111122 
COMPS,ioos:station:USF.COMPS:CAM:1,2008-09-07T14:00:00Z,27.7650,-82.6490,1016.42,1111122 
COMPS,ioos:station:USF.COMPS:CAM:1,2008-09-07T15:00:00Z,27.7650,-82.6490,1016.68,1111122 
COMPS,ioos:station:USF.COMPS:CAM:1,2008-09-07T16:00:00Z,27.7650,-82.6490,1016.49,1111122 
COMPS,ioos:station:USF.COMPS:CAM:1,2008-09-07T17:00:00Z,27.7650,-82.6490,1016.14,1111122 
COMPS,ioos:station:USF.COMPS:CAM:1,2008-09-07T18:00:00Z,27.7650,-82.6490,1015.76,1111122 
COMPS,ioos:station:USF.COMPS:CAM:1,2008-09-07T19:00:00Z,27.7650,-82.6490,1014.93,1111122 
COMPS,ioos:station:USF.COMPS:CAM:1,2008-09-07T20:00:00Z,27.7650,-82.6490,1013.85,1111122 
COMPS,ioos:station:USF.COMPS:CAM:1,2008-09-07T21:00:00Z,27.7650,-82.6490,1013.33,1111122 
COMPS,ioos:station:USF.COMPS:CAM:1,2008-09-07T22:00:00Z,27.7650,-82.6490,1013.26,1111122 
COMPS,ioos:station:USF.COMPS:CAM:1,2008-09-07T23:00:00Z,27.7650,-82.6490,1013.5,1111122 
COMPS,ioos:station:USF.COMPS:CAM:1,2008-09-08T00:00:00Z,27.7650,-82.6490,1013.93,1111122 
COMPS,ioos:station:USF.COMPS:CAM:1,2008-09-08T01:00:00Z,27.7650,-82.6490,1014.42,1111122 
COMPS,ioos:station:USF.COMPS:CAM:1,2008-09-08T02:00:00Z,27.7650,-82.6490,1015.25,1111122 
COMPS,ioos:station:USF.COMPS:CAM:1,2008-09-08T03:00:00Z,27.7650,-82.6490,1015.76,1111122 
COMPS,ioos:station:USF.COMPS:CAM:1,2008-09-08T04:00:00Z,27.7650,-82.6490,1015.92,1111122 
COMPS,ioos:station:USF.COMPS:CAM:1,2008-09-08T05:00:00Z,27.7650,-82.6490,1015.9,1111122 
COMPS,ioos:station:USF.COMPS:CAM:1,2008-09-08T06:00:00Z,27.7650,-82.6490,1015.22,1111122 
COMPS,ioos:station:USF.COMPS:CAM:1,2008-09-08T07:00:00Z,27.7650,-82.6490,1014.72,1111122 
COMPS,ioos:station:USF.COMPS:CAM:1,2008-09-08T08:00:00Z,27.7650,-82.6490,1014.44,1111122 
COMPS,ioos:station:USF.COMPS:CAM:1,2008-09-08T09:00:00Z,27.7650,-82.6490,1014.29,1111122 
COMPS,ioos:station:USF.COMPS:CAM:1,2008-09-08T10:00:00Z,27.7650,-82.6490,1014.3,1111122 
COMPS,ioos:station:USF.COMPS:CAM:1,2008-09-08T11:00:00Z,27.7650,-82.6490,1014.65,1111122 
COMPS,ioos:station:USF.COMPS:CAM:1,2008-09-08T12:00:00Z,27.7650,-82.6490,1015.01,1111122 
COMPS,ioos:station:USF.COMPS:CAM:1,2008-09-08T13:00:00Z,27.7650,-82.6490,1015.21,1111122 
COMPS,ioos:station:USF.COMPS:CAM:1,2008-09-08T14:00:00Z,27.7650,-82.6490,1015.05,1111122 
COMPS,ioos:station:USF.COMPS:CAM:1,2008-09-08T15:00:00Z,27.7650,-82.6490,1015.36,1111122 
COMPS,ioos:station:USF.COMPS:CAM:1,2008-09-08T16:00:00Z,27.7650,-82.6490,1014.97,1111122 
COMPS,ioos:station:USF.COMPS:CAM:1,2008-09-08T17:00:00Z,27.7650,-82.6490,1014.56,1111122 
COMPS,ioos:station:USF.COMPS:CAM:1,2008-09-08T18:00:00Z,27.7650,-82.6490,1013.72,1111122 
COMPS,ioos:station:USF.COMPS:CAM:1,2008-09-08T19:00:00Z,27.7650,-82.6490,1012.82,1111122 
COMPS,ioos:station:USF.COMPS:CAM:1,2008-09-08T20:00:00Z,27.7650,-82.6490,1012.34,1111122 
COMPS,ioos:station:USF.COMPS:CAM:1,2008-09-08T21:00:00Z,27.7650,-82.6490,1012.05,1111122 
COMPS,ioos:station:USF.COMPS:CAM:1,2008-09-08T22:00:00Z,27.7650,-82.6490,1011.69,1111122 
COMPS,ioos:station:USF.COMPS:CAM:1,2008-09-08T23:00:00Z,27.7650,-82.6490,1011.77,1111122 
COMPS,ioos:station:USF.COMPS:CAM:1,2008-09-09T00:00:00Z,27.7650,-82.6490,1012.29,1111122 
COMPS,ioos:station:USF.COMPS:CAM:1,2008-09-09T01:00:00Z,27.7650,-82.6490,1012.94,1111122 
COMPS,ioos:station:USF.COMPS:CAM:1,2008-09-09T02:00:00Z,27.7650,-82.6490,1013.88,1111122 
COMPS,ioos:station:USF.COMPS:CAM:1,2008-09-09T03:00:00Z,27.7650,-82.6490,1014.13,1111122 
COMPS,ioos:station:USF.COMPS:CAM:1,2008-09-09T04:00:00Z,27.7650,-82.6490,1014.17,1111122 
COMPS,ioos:station:USF.COMPS:CAM:1,2008-09-09T05:00:00Z,27.7650,-82.6490,1014.13,1111122 
COMPS,ioos:station:USF.COMPS:CAM:1,2008-09-09T06:00:00Z,27.7650,-82.6490,1013.61,1111122 
COMPS,ioos:station:USF.COMPS:CAM:1,2008-09-09T07:00:00Z,27.7650,-82.6490,1012.73,1111122 
COMPS,ioos:station:USF.COMPS:CAM:1,2008-09-09T08:00:00Z,27.7650,-82.6490,1011.98,1111122 
COMPS,ioos:station:USF.COMPS:CAM:1,2008-09-09T09:00:00Z,27.7650,-82.6490,1011.69,1111122 
COMPS,ioos:station:USF.COMPS:CAM:1,2008-09-09T10:00:00Z,27.7650,-82.6490,1011.62,1111122 
COMPS,ioos:station:USF.COMPS:CAM:1,2008-09-09T11:00:00Z,27.7650,-82.6490,1011.97,1111122 
COMPS,ioos:station:USF.COMPS:CAM:1,2008-09-09T12:00:00Z,27.7650,-82.6490,1012.45,1111122 
COMPS,ioos:station:USF.COMPS:CAM:1,2008-09-09T13:00:00Z,27.7650,-82.6490,1012.57,1111122 
COMPS,ioos:station:USF.COMPS:CAM:1,2008-09-09T14:00:00Z,27.7650,-82.6490,1012.85,1111122 
COMPS,ioos:station:USF.COMPS:CAM:1,2008-09-09T15:00:00Z,27.7650,-82.6490,1012.9,1111122 
COMPS,ioos:station:USF.COMPS:CAM:1,2008-09-09T16:00:00Z,27.7650,-82.6490,1012.5,1111122 
COMPS,ioos:station:USF.COMPS:CAM:1,2008-09-09T17:00:00Z,27.7650,-82.6490,1011.69,1111122 
COMPS,ioos:station:USF.COMPS:CAM:1,2008-09-09T18:00:00Z,27.7650,-82.6490,1010.78,1111122 
COMPS,ioos:station:USF.COMPS:CAM:1,2008-09-09T19:00:00Z,27.7650,-82.6490,1010.34,1111122 
COMPS,ioos:station:USF.COMPS:CAM:1,2008-09-09T20:00:00Z,27.7650,-82.6490,1009.66,1111122 
COMPS,ioos:station:USF.COMPS:CAM:1,2008-09-09T21:00:00Z,27.7650,-82.6490,1010.26,1111122 
COMPS,ioos:station:USF.COMPS:CAM:1,2008-09-09T22:00:00Z,27.7650,-82.6490,1010.62,1111122 
COMPS,ioos:station:USF.COMPS:CAM:1,2008-09-09T23:00:00Z,27.7650,-82.6490,1010.68,1111122 
COMPS,ioos:station:USF.COMPS:CAM:1,2008-09-10T00:00:00Z,27.7650,-82.6490,1010.78,1111122 
COMPS,ioos:station:USF.COMPS:CAM:1,2008-09-10T01:00:00Z,27.7650,-82.6490,1011.18,1111122 
COMPS,ioos:station:USF.COMPS:CAM:1,2008-09-10T02:00:00Z,27.7650,-82.6490,1011.72,1111122 
COMPS,ioos:station:USF.COMPS:CAM:1,2008-09-10T03:00:00Z,27.7650,-82.6490,1012.45,1111122 
COMPS,ioos:station:USF.COMPS:CAM:1,2008-09-10T04:00:00Z,27.7650,-82.6490,1012.33,1111122 
COMPS,ioos:station:USF.COMPS:CAM:1,2008-09-10T05:00:00Z,27.7650,-82.6490,1011.65,1111122 
COMPS,ioos:station:USF.COMPS:CAM:1,2008-09-10T06:00:00Z,27.7650,-82.6490,1010.78,1111122 
COMPS,ioos:station:USF.COMPS:CAM:1,2008-09-10T07:00:00Z,27.7650,-82.6490,1010.52,1111122 
COMPS,ioos:station:USF.COMPS:CAM:1,2008-09-10T08:00:00Z,27.7650,-82.6490,1010.04,1111122 
COMPS,ioos:station:USF.COMPS:CAM:1,2008-09-10T09:00:00Z,27.7650,-82.6490,1010.0,1111122 
COMPS,ioos:station:USF.COMPS:CAM:1,2008-09-10T10:00:00Z,27.7650,-82.6490,1010.05,1111122 
COMPS,ioos:station:USF.COMPS:CAM:1,2008-09-10T11:00:00Z,27.7650,-82.6490,1010.72,1111122 
COMPS,ioos:station:USF.COMPS:CAM:1,2008-09-10T12:00:00Z,27.7650,-82.6490,1011.21,1111122 
COMPS,ioos:station:USF.COMPS:CAM:1,2008-09-10T13:00:00Z,27.7650,-82.6490,1011.96,1111122 
COMPS,ioos:station:USF.COMPS:CAM:1,2008-09-10T14:00:00Z,27.7650,-82.6490,1012.48,1111122 
COMPS,ioos:station:USF.COMPS:CAM:1,2008-09-10T15:00:00Z,27.7650,-82.6490,1012.64,1111122 
COMPS,ioos:station:USF.COMPS:CAM:1,2008-09-10T16:00:00Z,27.7650,-82.6490,1012.64,1111122 
COMPS,ioos:station:USF.COMPS:CAM:1,2008-09-10T17:00:00Z,27.7650,-82.6490,1011.7,1111122 
COMPS,ioos:station:USF.COMPS:CAM:1,2008-09-10T18:00:00Z,27.7650,-82.6490,1010.94,1111122 
COMPS,ioos:station:USF.COMPS:CAM:1,2008-09-10T19:00:00Z,27.7650,-82.6490,1010.13,1111122 
COMPS,ioos:station:USF.COMPS:CAM:1,2008-09-10T20:00:00Z,27.7650,-82.6490,1009.64,1111122 
COMPS,ioos:station:USF.COMPS:CAM:1,2008-09-10T21:00:00Z,27.7650,-82.6490,1009.78,1111122 
COMPS,ioos:station:USF.COMPS:CAM:1,2008-09-10T22:00:00Z,27.7650,-82.6490,1010.32,1111122 
COMPS,ioos:station:USF.COMPS:CAM:1,2008-09-10T23:00:00Z,27.7650,-82.6490,1010.52,1111122 
COMPS,ioos:station:USF.COMPS:CAM:1,2008-09-11T00:00:00Z,27.7650,-82.6490,1010.86,1111122 
COMPS,ioos:station:USF.COMPS:CAM:1,2008-09-11T01:00:00Z,27.7650,-82.6490,1011.38,1111122 
COMPS,ioos:station:USF.COMPS:CAM:1,2008-09-11T02:00:00Z,27.7650,-82.6490,1012.09,1111122 
COMPS,ioos:station:USF.COMPS:CAM:1,2008-09-11T03:00:00Z,27.7650,-82.6490,1012.92,1111122 
COMPS,ioos:station:USF.COMPS:CAM:1,2008-09-11T04:00:00Z,27.7650,-82.6490,1013.12,1111122 
COMPS,ioos:station:USF.COMPS:CAM:1,2008-09-11T05:00:00Z,27.7650,-82.6490,1013.04,1111122 
COMPS,ioos:station:USF.COMPS:CAM:1,2008-09-11T06:00:00Z,27.7650,-82.6490,1012.68,1111122 
COMPS,ioos:station:USF.COMPS:CAM:1,2008-09-11T07:00:00Z,27.7650,-82.6490,1012.34,1111122 
COMPS,ioos:station:USF.COMPS:CAM:1,2008-09-11T08:00:00Z,27.7650,-82.6490,1012.2,1111122 
COMPS,ioos:station:USF.COMPS:CAM:1,2008-09-11T09:00:00Z,27.7650,-82.6490,1012.61,1111122 
COMPS,ioos:station:USF.COMPS:CAM:1,2008-09-11T10:00:00Z,27.7650,-82.6490,1012.78,1111122 
COMPS,ioos:station:USF.COMPS:CAM:1,2008-09-11T11:00:00Z,27.7650,-82.6490,1013.85,1111122 
COMPS,ioos:station:USF.COMPS:CAM:1,2008-09-11T12:00:00Z,27.7650,-82.6490,1013.92,1111122 
COMPS,ioos:station:USF.COMPS:CAM:1,2008-09-11T13:00:00Z,27.7650,-82.6490,1014.2,1111122 
COMPS,ioos:station:USF.COMPS:CAM:1,2008-09-11T14:00:00Z,27.7650,-82.6490,1015.18,1111122 
COMPS,ioos:station:USF.COMPS:CAM:1,2008-09-11T15:00:00Z,27.7650,-82.6490,1015.5,1111122 
COMPS,ioos:station:USF.COMPS:CAM:1,2008-09-11T16:00:00Z,27.7650,-82.6490,1015.44,1111122 
COMPS,ioos:station:USF.COMPS:CAM:1,2008-09-11T17:00:00Z,27.7650,-82.6490,1014.9,1111122 
COMPS,ioos:station:USF.COMPS:CAM:1,2008-09-11T18:00:00Z,27.7650,-82.6490,1014.45,1111122 
COMPS,ioos:station:USF.COMPS:CAM:1,2008-09-11T20:00:00Z,27.7650,-82.6490,1013.34,1111122 
COMPS,ioos:station:USF.COMPS:CAM:1,2008-09-11T21:00:00Z,27.7650,-82.6490,1012.56,1111122 
COMPS,ioos:station:USF.COMPS:CAM:1,2008-09-11T22:00:00Z,27.7650,-82.6490,1013.37,1111122 
COMPS,ioos:station:USF.COMPS:CAM:1,2008-09-11T23:00:00Z,27.7650,-82.6490,1013.61,1111122 
COMPS,ioos:station:USF.COMPS:CAM:1,2008-09-12T00:00:00Z,27.7650,-82.6490,1014.38,1111122 
COMPS,ioos:station:USF.COMPS:CAM:1,2008-09-12T01:00:00Z,27.7650,-82.6490,1014.62,1111122 
COMPS,ioos:station:USF.COMPS:CAM:1,2008-09-12T02:00:00Z,27.7650,-82.6490,1015.01,1111122 